COSMOS 1254

Satellite information

Favourite Embed

Satellite Type and Status

PAYLOADIN ORBIT

Key statistics

Satellite COSMOS 1254 at a glance.

Uptime

16359

Days in orbit

Revolutions

≈ 12.5

Per day

Orbit

LEO

Low Earth Orbit

Inclination

74.0

Latest

Satellite identification and parameters

Extended collection of information and parameters for COSMOS 1254.

Object identification

Identified? True

Debris? False

Object name: COSMOS 1254

International designator: 1981-022E

Object number (NORAD): 12324

Object ID (CCSDS): 12324

Country: COMMONWEALTH OF INDEPENDENT STATES (CIS)

Current information (Y/N): Y

RCS size: MEDIUM

Orbital parameters

Period: 114.913 minutes

Inclination: 74.0302 deg

SMA: 7829.587 km

Apoapsis: 1472.417 km

Periapsis: 1430.487 km

RAAN: 84.4377 deg

Eccentricy: 0.00267765

Argument of periapsis: 226.3703 deg

Mean anomaly: 253.7981 deg

Mean motion: 12.53125222 rev/day

Mean motion (dot): -0.00000019 rev/day2

B* drag term: -0.000018764572 1/REarth

Two-line elements (TLE)

Creation date: Dec. 19, 2025, 2:08 a.m.

Reference frame: TEME

Reference center: EARTH

Epoch: Dec. 18, 2025, 6:05 p.m. UTC

TLE line 0: 0 COSMOS 1254

TLE line 1: 1 12324U 81022E 25352.75415855 -.00000019 00000-0 -18765-4 0 9995

TLE line 2: 2 12324 74.0302 84.4377 0026776 226.3703 253.7981 12.53125222 48770

Live tracking on map

Real-time ground track for satellite COSMOS 1254.

In-orbit conjunctions

A list of the most updated potential collisions computed for object COSMOS 1254.

Target Orbit TCA Probability of collision Miss distance Type
DELTA 1 DEB SSO 2025-10-11 02:18:56 0.0002455332 148.0 (m) DEBRIS
DELTA 1 DEB SSO 2025-10-02 06:35:52 0.000433967 418.0 (m) DEBRIS
COSMOS 1823 DEB LEO 2025-04-06 19:44:32 0.0001212021 598.0 (m) DEBRIS

Associated space launch

Military communications satellites

COSMOS 1254 was lifted into orbit during the mission ‘Kosmos-3M | Strela-1M 209-216’, on board a Kosmos-3M space rocket.

The launch took place on March 6, 1981, 11:31 a.m. from 132/2.

For more information about the launch, click the button.

Launch to space Kosmos-3M | Strela-1M 209-216
Kosmos-3M | Strela-1M 209-216

Agency: N/A

Status: Launch Successful

Launch date: March 6, 1981, 11:31 a.m. UTC

Rocket: Kosmos-3M

Launch pad: 132/2

Location: Plesetsk Cosmodrome, Russian Federation

...

Latest news about this satellite

There are no fresh news available about this satellite. Check back as we update our databases every day.


Newsletter sign-up

Weekly statistics, charts and insights to help you stay on top of the space industry.